Location: Newark
(52.3500°N, 175.9667°E)
Time: 23:37:37
(UTC+00:00)

Vanguard 1 - Pass Details

Date: 22 April 2021
Orbit: 649 x 3834 km, 34.2° (Epoch: 04 May)

Event Time Altitude Azimuth Distance (km) Brightness Sun altitude
Rises 01:39:16 0° 220° (SW) 5,397 14.6 46.4°
Reaches altitude 10° 01:42:43 10° 212° (SSW) 4,789 14.6 46.2°
Maximum altitude 01:55:25 35° 153° (SSE) 4,240 14.0 45.1°
Drops below altitude 10° 02:13:44 10° 98° (E) 6,884 14.2 43.3°
Sets 02:20:01 0° 92° (E) 7,979 14.4 42.7°
